Location: Unspecified
(49.2170°N, 0.0000°E)
Time: 14:30:17
(UTC+00:00)

S-56A Canister/Altair - All Passes

Search period start: 16 June 2019 00:00
Search period end: 26 June 2019 00:00
Orbit: 633 x 2499 km, 38.9° (Epoch: 15 June)

Date Brightness Start Highest point End Pass type
(mag) Time Alt. Az. Time Alt. Az. Time Alt. Az.
16 Jun - 16:54:56 10° S 16:58:44 15° SSE 17:01:55 10° SE daylight
16 Jun - 18:57:03 10° SW 19:01:49 25° S 19:05:42 10° ESE daylight
16 Jun - 21:00:55 10° WSW 21:04:38 21° SSW 21:08:02 10° SE visible
17 Jun - 16:22:11 10° S 16:26:06 15° SSE 16:29:25 10° SE daylight
17 Jun - 18:24:07 10° SW 18:29:18 25° S 18:33:24 10° ESE daylight
17 Jun - 20:28:05 10° WSW 20:32:11 23° SSW 20:35:47 10° SE daylight
18 Jun - 15:49:25 10° S 15:53:28 14° SSE 15:56:53 10° SE daylight
18 Jun - 17:51:08 10° SW 17:56:46 26° S 18:01:05 10° ESE daylight
18 Jun - 19:55:11 10° WSW 19:59:44 25° S 20:03:33 10° SE daylight
18 Jun - 22:00:44 10° SW 22:02:15 11° SSW 22:03:44 10° S visible
19 Jun - 15:16:41 10° S 15:20:46 14° SSE 15:24:16 10° SE daylight
19 Jun - 17:18:05 10° SW 17:24:11 26° S 17:28:47 10° ESE daylight
19 Jun - 19:22:12 10° WSW 19:27:16 27° S 19:31:19 10° SE daylight
19 Jun - 21:27:26 10° WSW 21:29:49 14° SSW 21:32:04 10° S visible
20 Jun - 14:43:58 10° S 14:48:03 14° SSE 14:51:35 10° SE daylight
20 Jun - 16:44:58 10° SW 16:51:34 26° SSE 16:56:27 10° ESE daylight
20 Jun - 18:49:08 10° WSW 18:54:46 30° S 18:59:05 10° SE daylight
20 Jun - 20:54:16 10° WSW 20:57:23 16° SSW 21:00:13 10° SSE visible
21 Jun - 14:11:20 10° S 14:15:19 13° SSE 14:18:46 10° SE daylight
21 Jun - 16:11:50 10° SW 16:18:54 27° SSE 16:24:07 10° ESE daylight
21 Jun - 18:16:00 10° WSW 18:22:14 32° S 18:26:52 10° ESE daylight
21 Jun - 20:21:08 10° WSW 20:24:58 19° SSW 20:28:15 10° SSE daylight
22 Jun - 13:38:50 10° SSE 13:42:31 12° SSE 13:45:47 10° SE daylight
22 Jun - 15:38:39 10° SW 15:46:11 27° SSE 15:51:44 10° ESE daylight
22 Jun - 17:42:48 10° WSW 17:49:40 33° S 17:54:37 10° ESE daylight
22 Jun - 19:47:58 10° WSW 19:52:31 22° SSW 19:56:15 10° SSE daylight
23 Jun - 13:06:33 10° SSE 13:09:42 12° SE 13:12:34 10° SE daylight
23 Jun - 15:05:27 10° SSW 15:13:25 26° SSE 15:19:19 10° ESE daylight
23 Jun - 17:09:32 10° WSW 17:17:02 35° S 17:22:21 10° ESE daylight
23 Jun - 19:14:46 10° WSW 19:20:03 25° SSW 19:24:11 10° SE daylight
24 Jun - 12:34:43 10° SSE 12:36:50 11° SE 12:38:50 10° SE daylight
24 Jun - 14:32:14 10° SSW 14:40:37 26° SSE 14:46:51 10° ESE daylight
24 Jun - 16:36:12 10° WSW 16:44:22 36° S 16:50:05 10° ESE daylight
24 Jun - 18:41:31 10° WSW 18:47:33 28° SSW 18:52:06 10° SE daylight
25 Jun - 13:59:02 10° SSW 14:07:46 25° SSE 14:14:20 10° ESE daylight
25 Jun - 16:02:49 10° WSW 16:11:39 37° S 16:17:47 10° ESE daylight
25 Jun - 18:08:12 10° WSW 18:15:00 32° SSW 18:19:57 10° SE daylight
25 Jun - 20:15:01 10° WSW 20:17:23 12° SW 20:19:31 10° SSW daylight
